Location: Ferintosh
(52.7647°N, 112.9692°W)
Time: 17:25:06
(UTC+00:00)

A-11 Canister half - Pass Details

Date: 23 May 2024
Orbit: 1515 x 1685 km, 47.2° (Epoch: 12 June)

Event Time Altitude Azimuth Distance (km) Brightness Sun altitude
Rises 16:52:11 0° 284° (WNW) 4,667 11.1 46.1°
Reaches altitude 10° 16:56:42 10° 265° (W) 3,676 10.8 46.7°
Maximum altitude 17:01:45 16° 231° (SW) 3,207 10.7 47.4°
Drops below altitude 10° 17:06:49 10° 197° (SSW) 3,684 11.3 48.0°
Sets 17:11:24 0° 178° (S) 4,682 11.9 48.5°
